Weather History for Woodward, OK

Change the Weather History Date:

Sunday, January 5, 2014

  Actual Average (KGAG) Record (KGAG)
Temperature  
Mean Temperature 16 °F -  
Max Temperature 23 °F 45 °F 81 °F (1956)
Min Temperature 6 °F 19 °F -5 °F (1959)
Degree Days  
Heating Degree Days 50    
Moisture  
Dew Point 8 °F    
Average Humidity 69    
Maximum Humidity 93    
Minimum Humidity 46    
Precipitation  
Precipitation 0.00 in - - ()
Sea Level Pressure  
Sea Level Pressure 30.32 in    
Wind  
Wind Speed 14 mph (NNW)    
Max Wind Speed 22 mph    
Max Gust Speed 30 mph    
Visibility 9 miles    
Events Snow    
Averages and records for this station are not official NWS values.
T = Trace of Precipitation, MM = Missing Value Source: NWS Daily Summary

Daily Weather History Graph

Daily Weather History Graph

Search for Another Location

Airport:

Trip Planner

Search our weather history database for the weather conditions in past years. The results will help you decide how hot, cold, wet, or windy it might be!

Date:

Astronomy

Jan. 05, 2014 Rise Set
Actual Time 7:50 AM CST 5:37 PM CST
Civil Twilight 7:21 AM CST 6:05 PM CST
Nautical Twilight 6:49 AM CST 6:37 PM CST
Astronomical Twilight 6:18 AM CST 7:08 PM CST
Moon 10:41 AM CST (1/5) 10:56 PM CST (1/5)
Length of Visible Light 10h 43m
Length of Day
9h 46m
Waxing Crescent, 25% of the Moon is Illuminated
Jan 5
Waxing Crescent
Jan 7
First Quarter
Jan 15
Full
Jan 23
Last Quarter
Jan 30
New

Hourly Weather History & Observations

Time (CST) Temp. Windchill Dew Point Humidity Pressure Visibility Wind Dir Wind Speed Gust Speed Precip Events Conditions
12:15 AM 23.0 °F 10.6 °F 19.4 °F 86% 30.04 in 5.0 mi North 13.8 mph 23.0 mph N/A Snow Light Snow
12:35 AM 23.0 °F 8.7 °F 19.4 °F 86% 30.07 in 7.0 mi North 18.4 mph 24.2 mph N/A Snow Light Snow
12:55 AM 23.0 °F 10.1 °F 19.4 °F 86% 30.08 in 5.0 mi North 15.0 mph - N/A Snow Light Snow
1:15 AM 23.0 °F 12.4 °F 19.4 °F 86% 30.08 in 7.0 mi North 10.4 mph - N/A Snow Light Snow
1:35 AM 23.0 °F 12.4 °F 19.4 °F 86% 30.08 in 7.0 mi North 10.4 mph - N/A Snow Light Snow
1:55 AM 23.0 °F 9.6 °F 21.2 °F 93% 30.08 in 4.0 mi North 16.1 mph 24.2 mph N/A Snow Light Snow
2:15 AM 23.0 °F 10.1 °F 19.4 °F 86% 30.09 in 5.0 mi North 15.0 mph 24.2 mph N/A Snow Light Snow
2:35 AM 23.0 °F 8.7 °F 19.4 °F 86% 30.10 in 4.0 mi NNW 18.4 mph 24.2 mph N/A Snow Light Snow
2:55 AM 21.2 °F 5.2 °F 17.6 °F 86% 30.10 in 7.0 mi North 21.9 mph 29.9 mph N/A Snow Light Snow
3:15 AM 21.2 °F 6.4 °F 17.6 °F 86% 30.12 in 5.0 mi NNW 18.4 mph 26.5 mph N/A Snow Light Snow
3:35 AM 21.2 °F 6.8 °F 17.6 °F 86% 30.12 in 10.0 mi North 17.3 mph 25.3 mph N/A Snow Light Snow
3:55 AM 21.2 °F 7.3 °F 17.6 °F 86% 30.12 in 4.0 mi North 16.1 mph 28.8 mph N/A Snow Light Snow
4:15 AM 21.2 °F 7.3 °F 17.6 °F 86% 30.13 in 5.0 mi NNW 16.1 mph 20.7 mph N/A Snow Light Snow
4:35 AM 21.2 °F 5.6 °F 17.6 °F 86% 30.13 in 5.0 mi NNW 20.7 mph 27.6 mph N/A Snow Light Snow
4:55 AM 19.4 °F 5.0 °F 14.0 °F 80% 30.14 in 7.0 mi NNW 16.1 mph 24.2 mph N/A Snow Light Snow
5:15 AM 19.4 °F 5.0 °F 15.8 °F 86% 30.15 in 10.0 mi North 16.1 mph - N/A Snow Light Snow
5:35 AM 19.4 °F 7.9 °F 15.8 °F 86% 30.16 in 4.0 mi NNW 10.4 mph - N/A Snow Light Snow
5:55 AM 19.4 °F 6.0 °F 15.8 °F 86% 30.16 in 7.0 mi North 13.8 mph 18.4 mph N/A Snow Light Snow
6:15 AM 19.4 °F 6.6 °F 14.0 °F 80% 30.17 in 10.0 mi NNW 12.7 mph - N/A   Overcast
6:35 AM 17.6 °F 5.0 °F 14.0 °F 86% 30.17 in 10.0 mi North 11.5 mph - N/A   Mostly Cloudy
6:55 AM 17.6 °F 6.4 °F 12.2 °F 79% 30.17 in 10.0 mi North 9.2 mph - N/A   Scattered Clouds
7:15 AM 17.6 °F 5.0 °F 10.4 °F 73% 30.19 in 10.0 mi NNW 11.5 mph - N/A   Clear
7:35 AM 15.8 °F 2.7 °F 6.8 °F 68% 30.20 in 10.0 mi NNW 11.5 mph - N/A   Clear
7:55 AM 15.8 °F 2.7 °F 6.8 °F 68% 30.21 in 10.0 mi North 11.5 mph - N/A   Clear
8:15 AM 15.8 °F 2.1 °F 5.0 °F 62% 30.23 in 10.0 mi NNW 12.7 mph - N/A   Clear
8:35 AM 15.8 °F 1.4 °F 5.0 °F 62% 30.25 in 10.0 mi North 13.8 mph 18.4 mph N/A   Clear
8:55 AM 17.6 °F 5.0 °F 3.2 °F 53% 30.27 in 10.0 mi North 11.5 mph 16.1 mph N/A   Clear
9:15 AM 17.6 °F 3.7 °F 3.2 °F 53% 30.29 in 10.0 mi North 13.8 mph 20.7 mph N/A   Clear
9:35 AM 17.6 °F 2.2 °F 3.2 °F 53% 30.29 in 10.0 mi North 17.3 mph - N/A   Clear
9:55 AM 17.6 °F 1.7 °F 3.2 °F 53% 30.30 in 10.0 mi North 18.4 mph 24.2 mph N/A   Clear
10:15 AM 17.6 °F 1.3 °F 3.2 °F 53% 30.31 in 10.0 mi North 19.6 mph 24.2 mph N/A   Clear
10:35 AM 17.6 °F 1.7 °F 3.2 °F 53% 30.32 in 10.0 mi NNW 18.4 mph - N/A   Clear
10:55 AM 17.6 °F 1.7 °F 3.2 °F 53% 30.33 in 10.0 mi NNW 18.4 mph 21.9 mph N/A   Clear
11:15 AM 17.6 °F 2.7 °F 1.4 °F 49% 30.33 in 10.0 mi North 16.1 mph 21.9 mph N/A   Clear
11:35 AM 19.4 °F 4.5 °F 1.4 °F 46% 30.35 in 10.0 mi NNW 17.3 mph 21.9 mph N/A   Clear
11:55 AM 19.4 °F 4.1 °F 1.4 °F 46% 30.34 in 10.0 mi North 18.4 mph 23.0 mph N/A   Clear
12:15 PM 19.4 °F 5.0 °F 1.4 °F 46% 30.33 in 10.0 mi North 16.1 mph - N/A   Clear
12:35 PM 19.4 °F 5.0 °F 3.2 °F 49% 30.33 in 10.0 mi North 16.1 mph 21.9 mph N/A   Clear
12:55 PM 19.4 °F 4.1 °F 3.2 °F 49% 30.32 in 10.0 mi North 18.4 mph - N/A   Clear
1:15 PM 19.4 °F 4.5 °F 3.2 °F 49% 30.32 in 10.0 mi North 17.3 mph - N/A   Clear
1:35 PM 21.2 °F 8.3 °F 3.2 °F 46% 30.33 in 10.0 mi North 13.8 mph 20.7 mph N/A   Clear
1:55 PM 21.2 °F 8.3 °F 3.2 °F 46% 30.33 in 10.0 mi NNW 13.8 mph - N/A   Clear
2:15 PM 21.2 °F 6.4 °F 3.2 °F 46% 30.33 in 10.0 mi North 18.4 mph 21.9 mph N/A   Clear
2:35 PM 21.2 °F 7.8 °F 3.2 °F 46% 30.33 in 10.0 mi NNE 15.0 mph - N/A   Clear
2:55 PM 21.2 °F 8.9 °F 5.0 °F 50% 30.35 in 10.0 mi North 12.7 mph 18.4 mph N/A   Clear
3:15 PM 21.2 °F 8.3 °F 5.0 °F 50% 30.36 in 10.0 mi NNW 13.8 mph 18.4 mph N/A   Clear
3:35 PM 21.2 °F 7.3 °F 6.8 °F 54% 30.37 in 10.0 mi North 16.1 mph 20.7 mph N/A   Clear
3:55 PM 19.4 °F 4.5 °F 5.0 °F 54% 30.38 in 10.0 mi North 17.3 mph 23.0 mph N/A   Clear
4:15 PM 19.4 °F 3.2 °F 6.8 °F 58% 30.40 in 10.0 mi North 20.7 mph - N/A   Clear
4:35 PM 19.4 °F 5.0 °F 6.8 °F 58% 30.40 in 10.0 mi North 16.1 mph 23.0 mph N/A   Scattered Clouds
4:55 PM 17.6 °F 3.2 °F 5.0 °F 58% 30.42 in 10.0 mi North 15.0 mph 21.9 mph N/A   Scattered Clouds
5:15 PM 17.6 °F 4.3 °F 6.8 °F 63% 30.43 in 10.0 mi North 12.7 mph - N/A   Clear
5:35 PM 15.8 °F 4.2 °F 6.8 °F 68% 30.45 in 10.0 mi North 9.2 mph - N/A   Scattered Clouds
5:55 PM 14.0 °F 2.0 °F 5.0 °F 67% 30.47 in 10.0 mi North 9.2 mph - N/A   Scattered Clouds
6:15 PM 14.0 °F 2.0 °F 5.0 °F 67% 30.47 in 10.0 mi North 9.2 mph - N/A   Clear
6:35 PM 12.2 °F 0.7 °F 5.0 °F 73% 30.48 in 10.0 mi North 8.1 mph - N/A   Clear
6:55 PM 12.2 °F 2.9 °F 3.2 °F 67% 30.49 in 10.0 mi North 5.8 mph - N/A   Clear
7:15 PM 10.4 °F 2.2 °F 3.2 °F 73% 30.49 in 10.0 mi North 4.6 mph - N/A   Clear
7:35 PM 10.4 °F -1.5 °F 3.2 °F 73% 30.50 in 10.0 mi North 8.1 mph - N/A   Clear
7:55 PM 12.2 °F 0.7 °F 5.0 °F 73% 30.51 in 10.0 mi North 8.1 mph - N/A   Scattered Clouds
8:15 PM 10.4 °F -0.4 °F 5.0 °F 79% 30.52 in 10.0 mi NNW 6.9 mph - N/A   Scattered Clouds
8:35 PM 10.4 °F 2.2 °F 5.0 °F 79% 30.53 in 10.0 mi NNW 4.6 mph - N/A   Mostly Cloudy
8:55 PM 10.4 °F 4.0 °F 5.0 °F 79% 30.53 in 10.0 mi NNW 3.5 mph - N/A   Scattered Clouds
9:15 PM 10.4 °F 4.0 °F 5.0 °F 79% 30.54 in 10.0 mi WNW 3.5 mph - N/A   Scattered Clouds
9:35 PM 10.4 °F 4.0 °F 5.0 °F 79% 30.54 in 10.0 mi WNW 3.5 mph - N/A   Mostly Cloudy
9:55 PM 10.4 °F 2.2 °F 5.0 °F 79% 30.55 in 10.0 mi West 4.6 mph - N/A   Mostly Cloudy
10:15 PM 8.6 °F -1.3 °F 5.0 °F 85% 30.55 in 10.0 mi West 5.8 mph - N/A   Scattered Clouds
10:35 PM 8.6 °F -1.3 °F 3.2 °F 79% 30.55 in 10.0 mi WSW 5.8 mph - N/A   Scattered Clouds
10:55 PM 10.4 °F 0.8 °F 5.0 °F 79% 30.55 in 10.0 mi WSW 5.8 mph - N/A   Mostly Cloudy
11:15 PM 8.6 °F -2.6 °F 5.0 °F 85% 30.55 in 10.0 mi WSW 6.9 mph - N/A   Scattered Clouds
11:35 PM 8.6 °F -1.3 °F 5.0 °F 85% 30.55 in 10.0 mi WSW 5.8 mph - N/A   Clear
11:55 PM 6.8 °F -2.0 °F 3.2 °F 85% 30.56 in 10.0 mi West 4.6 mph - N/A   Clear